Regional Weather Roundup
Issued by NWS Newport/Morehead, NC

Current Version | Previous Version | Graphics & Text | Print | Product List | Glossary On
Versions: 1 2 3 4 5 6 7 8 9 10 11 12 13 14 15 16 17 18 19 20 21 22 23 24 25 26 27 28 29 30 31 32 33 34 35 36 37 38 39 40 41 42 43 44 45 46 47 48 49 50
000 ASUS42 KMHX 290513 RWRMHX WEATHER ROUNDUP FOR EASTERN NORTH CAROLINA NATIONAL WEATHER SERVICE NEWPORT/MOREHEAD CITY NC 100 AM EDT WED MAR 29 2017 NOTE: "FAIR" INDICATES FEW OR NO CLOUDS BELOW 12,000 FEET WITH NO SIGNIFICANT WEATHER AND/OR OBSTRUCTIONS TO VISIBILITY NCZ015>017-031-032-045>047-102-103-290600- NORTH COAST CITY SKY/WX TMP DP RH WIND PRES REMARKS EDENTON CLEAR 60 59 97 CALM 29.92S ELIZABETH CITY CLEAR 56 55 97 NW3 29.90S KITTY HAWK NOT AVBL MANTEO CLEAR 59 58 97 NW6 29.91R $$ NCZ045>047-081-094-103-104-290600- CENTRAL COAST CITY SKY/WX TMP DP RH WIND PRES REMARKS FRISCO CLEAR 63 60 90 W7 29.90S FOG $$ NCZ095-097-098-100-101-290600- SOUTHERN COAST CITY SKY/WX TMP DP RH WIND PRES REMARKS BEAUFORT CLEAR 61 61 100 NW6 29.92S CEDAR ISLAND NOT AVBL JACKSONVILLE NOT AVBL PINEY ISLAND FOG N/A N/A N/A W6 29.91F VSB 1/4 WILMINGTON CLEAR 63 60 90 CALM 29.93S $$ NCZ011>013-027>030-043-044-078>080-089-090>093-098-290600- COASTAL PLAIN CITY SKY/WX TMP DP RH WIND PRES REMARKS AHOSKIE N/A 53 52 99 CALM 29.93S FOG CLINTON CLEAR 61 61 100 CALM 29.95S ELIZABETHTOWN CLEAR 63 61 93 CALM 29.94S GOLDSBORO CLEAR 59 59 100 CALM 29.92S GREENVILLE FOG 55 54 94 CALM 29.95S VSB 1/2 HAVELOCK NOT AVBL KENANSVILLE FOG 57 57 100 CALM 29.94S VSB 3/4 KINSTON FOG 55 55 100 CALM 29.94S VSB 1 NEW BERN FOG 57 57 100 CALM 29.93S VSB 1/4 RICHLANDS FOG 56 56 100 CALM 29.93S VSB 1/4 ROCKY MOUNT CLEAR 53 53 100 CALM 29.94S WASHINGTON PTCLDY 56 56 100 CALM 29.92F FOG WHITEVILLE CLEAR 64 62 93 CALM 29.94R $$ AMZ130-135-150-152-154-156-158-170-250-252-270-ANZ085-086-088-633-658-670-290600- MARINE OBSERVATIONS STATION/POSITION TIME TEMP WIND PRES WAVE SWELL AIR SEA DIR/SP/G HT/PER HT/PER (UTC) (F) (DEG/KT/KT) (MB) (FT/S) (FT/S) CHESAPEAKE LIGHT NOT AVBL 64 E VA BEACH 0450 54 49 250/ 8/ 8 1011.6 4/ 9 3/ 9 DUCK 0448 63 47 300/ 10/ 14 1011.8 2 E DUCK 0500 49 N/A 2/10 2/11 OREGON INLET 0442 60 62 290/ 4/ 5 1012.3 13E OREGON INLT 0448 53 N/A 4/10 3/10 HATTERAS CG 0448 61 63 270/ 10/ 11 1012.4 DIAMOND BUOY 0450 70 74 280/ 14/ 17 1012.5 5/10 3/10 CAPE LOOKOUT 0500 64 300/ 6/ 7 1012.6 BEAUFORT LAB 0448 62 62 340/ 3/ 4 1012.2 30 SE NEW RVR IN 0408 65 250/ 12/ 16 1013.1 30 SE NEW RVR IN 0443 64 N/A 5/11 2/11 27 SE WRIGHTSVLE 0408 67 70 280/ 10/ 14 1012.2 5 SE WRIGHTSVLE 0408 61 58 240/ 6/ 10 1013.2 225 S CAPE HAT 0450 71 72 210/ 16/ 17 1015.0 6/10 5/10 41 SE CHARLESTON 0450 70 71 240/ 16/ 19 1013.8 5/ 9 5/ 9 $$

USA.gov is the U.S. government's official web portal to all federal, state and local government web resources and services.